contact:dominique.lefevre@mio.osupytheas.fr, maurice.libes@osupytheas.fr, didier.mallarino@osupytheas.fr
Project:EMSO http://www.emso-fr.org/EMSO-France
Depth: 2436.0 m
Title:EMSO Ligure Ouest : Data MII capteur AQUADOPP
Date,Latitude,Longitude,X_East,Y_North,Z_Up,Amplitude_X,Amplitude_Y,Amplitude_Z,Batterie,SoundSpeed,Heading,Pitch,Roll,Pressure,TIS,Speed,Direction
, degrees North, degrees East, m.s-1, m.s-1,m.s-1, 1, 1, 1, Volt, m.s-1, degree, degree, degree, dbar, degree_C, m.s-1, degree
2019-11-20T00:04:03,42.805,6.029,0.039,0.005,-0.025,101.0,105.0,98.0,13.3,1505.3,325.6,-0.7,1.8,2470.273,13.31,0.039,82.7
2019-11-20T00:07:03,42.805,6.029,0.039,0.016,-0.007,99.0,106.0,98.0,13.4,1505.3,325.9,-0.7,1.8,2470.266,13.31,0.042,67.7
2019-11-20T00:10:03,42.805,6.029,0.025,0.018,-0.032,99.0,106.0,97.0,13.4,1505.3,327.1,-0.7,1.8,2470.222,13.32,0.03,54.2
2019-11-20T00:13:03,42.805,6.029,0.047,0.027,-0.013,100.0,106.0,98.0,13.3,1505.3,326.9,-0.7,1.8,2470.251,13.32,0.054,60.1
2019-11-20T00:16:03,42.805,6.029,0.0,-0.007,-0.028,99.0,107.0,97.0,13.4,1505.3,323.7,-0.7,1.8,2470.231,13.32,0.007,180.0
2019-11-20T00:19:03,42.805,6.029,0.023,0.027,-0.018,99.0,106.0,97.0,13.3,1505.3,323.1,-0.7,1.8,2470.248,13.33,0.035,40.4
2019-11-20T00:22:03,42.805,6.029,0.031,0.01,-0.008,100.0,106.0,98.0,13.3,1505.3,324.9,-0.7,1.8,2470.253,13.33,0.032,72.1
2019-11-20T00:25:03,42.805,6.029,0.027,0.011,-0.059,99.0,107.0,97.0,13.4,1505.3,326.6,-0.7,1.8,2470.231,13.33,0.029,67.8
2019-11-20T00:28:03,42.805,6.029,-0.004,0.014,-0.031,99.0,107.0,97.0,13.4,1505.3,326.7,-0.7,1.8,2470.2,13.33,0.014,344.1
2019-11-20T00:31:03,42.805,6.029,0.034,0.003,0.022,99.0,107.0,97.0,13.4,1505.3,325.3,-0.7,1.8,2470.231,13.33,0.034,85.0
2019-11-20T00:34:03,42.805,6.029,0.024,0.009,-0.014,102.0,107.0,97.0,13.4,1505.3,326.8,-0.7,1.8,2470.22,13.33,0.025,69.4
2019-11-20T00:37:03,42.805,6.029,0.035,0.017,0.021,98.0,106.0,98.0,13.4,1505.3,326.9,-0.7,1.8,2470.236,13.33,0.038,64.1
2019-11-20T00:40:03,42.805,6.029,0.029,0.011,0.006,100.0,106.0,97.0,13.4,1505.3,326.9,-0.7,1.8,2470.228,13.33,0.031,69.2
2019-11-20T00:43:03,42.805,6.029,0.029,0.03,0.0,97.0,107.0,98.0,13.3,1505.3,323.3,-0.7,1.8,2470.261,13.33,0.041,44.0
2019-11-20T00:46:03,42.805,6.029,0.04,-0.002,-0.001,99.0,107.0,98.0,13.4,1505.3,324.8,-0.6,1.9,2470.197,13.33,0.04,92.9
2019-11-20T00:49:03,42.805,6.029,0.046,0.009,-0.012,99.0,106.0,98.0,13.4,1505.3,322.5,-0.8,1.8,2470.25,13.33,0.046,78.9
2019-11-20T00:52:03,42.805,6.029,0.043,0.002,-0.015,99.0,106.0,98.0,13.4,1505.3,326.3,-0.7,1.9,2470.225,13.33,0.043,87.3
2019-11-20T00:55:03,42.805,6.029,0.016,0.012,-0.007,100.0,106.0,98.0,13.4,1505.3,324.3,-0.7,1.8,2470.23,13.33,0.02,53.1
2019-11-20T00:58:03,42.805,6.029,0.018,0.012,-0.017,100.0,108.0,97.0,13.4,1505.3,324.5,-0.7,1.8,2470.194,13.33,0.021,56.3
2019-11-20T01:04:03,42.805,6.029,0.028,0.008,-0.045,100.0,107.0,98.0,13.4,1505.3,327.3,-0.7,1.9,2470.285,13.31,0.029,74.1
2019-11-20T01:07:03,42.805,6.029,0.013,0.005,-0.057,101.0,107.0,97.0,13.4,1505.3,324.8,-0.7,1.8,2470.222,13.31,0.013,69.0
2019-11-20T01:10:03,42.805,6.029,0.006,0.015,-0.025,100.0,106.0,97.0,13.4,1505.3,323.5,-0.7,1.8,2470.264,13.32,0.016,21.8
2019-11-20T01:13:03,42.805,6.029,0.01,-0.016,-0.061,99.0,108.0,97.0,13.4,1505.3,327.4,-0.7,1.9,2470.244,13.32,0.018,148.0
2019-11-20T01:16:03,42.805,6.029,-0.034,0.019,-0.108,98.0,108.0,98.0,13.4,1505.3,324.8,-0.7,1.9,2470.217,13.33,0.038,299.2
2019-11-20T01:19:03,42.805,6.029,0.02,0.019,-0.033,99.0,106.0,97.0,13.4,1505.3,325.4,-0.7,1.8,2470.232,13.33,0.027,46.5
2019-11-20T01:22:03,42.805,6.029,0.003,0.013,-0.037,99.0,107.0,98.0,13.4,1505.3,323.0,-0.7,1.8,2470.185,13.33,0.013,13.0
2019-11-20T01:25:03,42.805,6.029,0.021,0.017,-0.032,99.0,108.0,97.0,13.3,1505.3,328.2,-0.7,1.8,2470.225,13.33,0.027,51.0
2019-11-20T01:28:03,42.805,6.029,-0.006,0.012,-0.06,99.0,107.0,98.0,13.4,1505.3,325.0,-0.7,1.9,2470.221,13.33,0.013,333.4
2019-11-20T01:31:03,42.805,6.029,0.028,0.011,-0.042,100.0,107.0,98.0,13.3,1505.3,323.3,-0.7,1.8,2470.228,13.33,0.03,68.6
2019-11-20T01:34:03,42.805,6.029,0.002,0.01,-0.035,99.0,108.0,98.0,13.3,1505.3,327.9,-0.7,1.8,2470.241,13.33,0.01,11.3
2019-11-20T01:37:03,42.805,6.029,-0.012,0.02,-0.05,99.0,108.0,98.0,13.3,1505.3,325.0,-0.7,1.8,2470.222,13.33,0.023,329.0
2019-11-20T01:40:03,42.805,6.029,-0.015,0.016,-0.008,99.0,108.0,98.0,13.4,1505.3,323.2,-0.7,1.8,2470.21,13.33,0.021,316.9
2019-11-20T01:43:03,42.805,6.029,-0.004,0.022,-0.072,98.0,107.0,97.0,13.3,1505.3,327.9,-0.7,1.9,2470.232,13.33,0.022,349.7
2019-11-20T01:46:03,42.805,6.029,0.014,0.002,-0.029,99.0,108.0,98.0,13.3,1505.3,322.8,-0.7,1.8,2470.209,13.33,0.014,81.9
2019-11-20T01:49:03,42.805,6.029,-0.002,0.013,-0.066,99.0,109.0,97.0,13.3,1505.3,326.6,-0.7,1.8,2470.2,13.33,0.013,351.3
2019-11-20T01:52:03,42.805,6.029,-0.022,0.021,-0.046,100.0,107.0,98.0,13.3,1505.3,324.1,-0.7,1.8,2470.215,13.33,0.03,313.7
2019-11-20T01:55:03,42.805,6.029,0.02,0.022,-0.004,99.0,107.0,97.0,13.4,1505.3,324.7,-0.7,1.9,2470.209,13.33,0.029,42.3
2019-11-20T01:58:03,42.805,6.029,0.0,0.007,-0.027,100.0,108.0,98.0,13.4,1505.3,324.9,-0.7,1.8,2470.187,13.33,0.007,0.0
2019-11-20T02:04:03,42.805,6.029,-0.022,0.026,-0.045,100.0,106.0,98.0,13.4,1505.3,326.3,-0.8,1.9,2470.217,13.31,0.034,319.8
2019-11-20T02:07:03,42.805,6.029,0.016,0.014,-0.039,99.0,108.0,97.0,13.4,1505.3,324.5,-0.8,1.9,2470.221,13.32,0.021,48.8
2019-11-20T02:10:03,42.805,6.029,0.011,0.013,-0.037,99.0,108.0,98.0,13.4,1505.3,325.7,-0.7,1.8,2470.197,13.32,0.017,40.2
2019-11-20T02:13:03,42.805,6.029,0.03,0.022,0.003,99.0,110.0,99.0,13.3,1505.3,326.3,-0.7,1.8,2470.208,13.32,0.037,53.7
2019-11-20T02:16:03,42.805,6.029,0.032,0.012,-0.021,99.0,107.0,97.0,13.4,1505.3,327.7,-0.7,1.8,2470.207,13.32,0.034,69.4
2019-11-20T02:19:03,42.805,6.029,0.057,-0.001,0.005,99.0,107.0,98.0,13.3,1505.3,326.6,-0.7,1.9,2470.16,13.33,0.057,91.0
2019-11-20T02:22:03,42.805,6.029,-0.019,-0.006,-0.056,100.0,107.0,97.0,13.4,1505.3,327.0,-0.7,1.8,2470.213,13.33,0.019,252.5
2019-11-20T02:25:03,42.805,6.029,0.073,0.03,0.015,99.0,106.0,98.0,13.4,1505.3,325.2,-0.7,1.9,2470.235,13.33,0.078,67.7
2019-11-20T02:28:03,42.805,6.029,0.05,0.034,0.037,99.0,107.0,97.0,13.4,1505.3,323.2,-0.7,1.9,2470.218,13.33,0.06,55.8
2019-11-20T02:31:03,42.805,6.029,0.041,0.011,-0.049,99.0,107.0,97.0,13.3,1505.3,325.4,-0.7,1.8,2470.196,13.33,0.042,75.0
2019-11-20T02:34:03,42.805,6.029,0.073,0.0,-0.008,98.0,107.0,97.0,13.4,1505.3,324.2,-0.7,1.8,2470.238,13.33,0.072,90.0
2019-11-20T02:37:03,42.805,6.029,0.074,0.03,0.025,99.0,107.0,97.0,13.4,1505.3,326.0,-0.7,1.8,2470.232,13.33,0.079,67.9
2019-11-20T02:40:03,42.805,6.029,0.064,0.017,-0.007,99.0,108.0,97.0,13.4,1505.3,324.8,-0.7,1.8,2470.202,13.33,0.066,75.1
2019-11-20T02:43:03,42.805,6.029,0.018,0.021,-0.034,99.0,108.0,96.0,13.4,1505.3,325.7,-0.8,1.8,2470.203,13.33,0.027,40.6
2019-11-20T02:46:03,42.805,6.029,0.021,0.012,-0.014,99.0,108.0,97.0,13.4,1505.3,325.9,-0.8,1.8,2470.171,13.33,0.024,60.3
2019-11-20T02:49:03,42.805,6.029,0.063,0.027,0.008,100.0,105.0,97.0,13.4,1505.3,328.1,-0.7,1.9,2470.222,13.33,0.068,66.8
2019-11-20T02:52:03,42.805,6.029,0.054,0.021,0.012,99.0,106.0,98.0,13.4,1505.3,323.7,-0.7,1.8,2470.216,13.33,0.057,68.8
2019-11-20T02:55:03,42.805,6.029,0.029,0.016,0.003,99.0,106.0,98.0,13.4,1505.3,324.4,-0.7,1.8,2470.224,13.33,0.033,61.1
2019-11-20T02:58:03,42.805,6.029,0.003,0.034,-0.061,99.0,108.0,97.0,13.4,1505.3,325.4,-0.7,1.9,2470.195,13.33,0.034,5.0
2019-11-20T03:04:03,42.805,6.029,0.055,0.006,-0.01,99.0,108.0,97.0,13.4,1505.3,326.3,-0.7,1.9,2470.227,13.31,0.055,83.8
2019-11-20T03:07:03,42.805,6.029,0.043,0.02,-0.006,100.0,109.0,98.0,13.3,1505.3,326.0,-0.8,1.8,2470.228,13.31,0.047,65.1
2019-11-20T03:10:03,42.805,6.029,0.012,0.007,-0.024,99.0,108.0,97.0,13.4,1505.3,325.9,-0.7,1.9,2470.207,13.32,0.013,59.7
2019-11-20T03:13:03,42.805,6.029,0.047,0.026,0.042,99.0,108.0,97.0,13.4,1505.3,326.0,-0.7,1.8,2470.195,13.32,0.053,61.1
2019-11-20T03:16:03,42.805,6.029,0.027,0.018,0.001,100.0,107.0,97.0,13.4,1505.3,327.4,-0.7,1.9,2470.215,13.32,0.032,56.3
2019-11-20T03:19:03,42.805,6.029,0.044,0.034,0.009,98.0,107.0,98.0,13.3,1505.3,323.2,-0.7,1.8,2470.18,13.32,0.055,52.3
2019-11-20T03:22:03,42.805,6.029,0.007,0.024,-0.036,98.0,109.0,97.0,13.4,1505.3,325.9,-0.7,1.8,2470.207,13.33,0.025,16.3
2019-11-20T03:25:03,42.805,6.029,0.032,0.025,0.01,100.0,108.0,98.0,13.3,1505.3,327.1,-0.7,1.8,2470.217,13.33,0.04,52.0
2019-11-20T03:28:03,42.805,6.029,0.045,0.017,0.005,99.0,108.0,98.0,13.4,1505.3,324.7,-0.7,1.8,2470.182,13.33,0.048,69.3
2019-11-20T03:31:03,42.805,6.029,0.022,0.036,0.003,100.0,108.0,97.0,13.4,1505.3,323.3,-0.7,1.8,2470.183,13.33,0.042,31.4
2019-11-20T03:34:03,42.805,6.029,0.034,0.01,-0.02,100.0,109.0,98.0,13.4,1505.3,328.3,-0.7,1.9,2470.191,13.33,0.035,73.6
2019-11-20T03:37:03,42.805,6.029,0.031,0.02,0.009,98.0,107.0,98.0,13.4,1505.3,324.4,-0.7,1.8,2470.201,13.33,0.036,57.2
2019-11-20T03:40:03,42.805,6.029,0.024,0.011,0.006,99.0,107.0,98.0,13.4,1505.3,324.3,-0.7,1.8,2470.187,13.33,0.026,65.4
2019-11-20T03:43:03,42.805,6.029,0.07,0.022,0.017,99.0,107.0,98.0,13.3,1505.3,326.8,-0.7,1.8,2470.185,13.33,0.073,72.6
2019-11-20T03:46:03,42.805,6.029,0.05,0.018,0.011,98.0,108.0,98.0,13.4,1505.3,326.2,-0.7,1.9,2470.151,13.33,0.053,70.2
2019-11-20T03:49:03,42.805,6.029,0.015,0.031,-0.018,98.0,108.0,98.0,13.3,1505.3,325.0,-0.7,1.8,2470.198,13.33,0.034,25.8
2019-11-20T03:52:03,42.805,6.029,0.027,0.03,0.002,99.0,108.0,97.0,13.4,1505.3,323.9,-0.7,1.8,2470.162,13.33,0.04,42.0
2019-11-20T03:55:03,42.805,6.029,0.035,0.029,-0.025,100.0,108.0,97.0,13.3,1505.3,328.1,-0.7,1.8,2470.146,13.33,0.045,50.4
2019-11-20T03:58:03,42.805,6.029,0.027,0.023,-0.011,100.0,109.0,97.0,13.4,1505.3,327.2,-0.7,1.8,2470.208,13.33,0.035,49.6
2019-11-20T04:04:03,42.805,6.029,0.021,0.012,-0.021,99.0,109.0,97.0,13.4,1505.3,324.1,-0.7,1.8,2470.185,13.31,0.024,60.3
2019-11-20T04:07:03,42.805,6.029,0.02,0.02,-0.046,100.0,108.0,98.0,13.4,1505.3,323.8,-0.7,1.8,2470.167,13.31,0.028,45.0
2019-11-20T04:10:03,42.805,6.029,0.035,0.013,-0.02,99.0,109.0,98.0,13.4,1505.3,328.6,-0.7,1.8,2470.209,13.32,0.037,69.6
2019-11-20T04:13:03,42.805,6.029,0.003,0.012,-0.034,99.0,109.0,97.0,13.4,1505.3,326.6,-0.7,1.8,2470.171,13.32,0.012,14.0
2019-11-20T04:16:03,42.805,6.029,0.022,0.02,-0.033,100.0,109.0,97.0,13.3,1505.3,327.9,-0.7,1.8,2470.194,13.32,0.029,47.7
2019-11-20T04:19:03,42.805,6.029,0.038,0.009,-0.031,99.0,109.0,97.0,13.4,1505.3,325.8,-0.7,1.8,2470.226,13.33,0.039,76.7
2019-11-20T04:22:03,42.805,6.029,0.021,0.011,-0.041,99.0,108.0,97.0,13.4,1505.3,324.7,-0.7,1.8,2470.171,13.33,0.023,62.4
2019-11-20T04:25:03,42.805,6.029,-0.003,0.017,-0.07,98.0,109.0,97.0,13.4,1505.3,327.2,-0.7,1.8,2470.176,13.33,0.017,350.0
2019-11-20T04:28:03,42.805,6.029,0.033,0.023,0.002,99.0,108.0,97.0,13.3,1505.3,323.4,-0.7,1.8,2470.199,13.33,0.04,55.1
2019-11-20T04:31:03,42.805,6.029,0.006,0.013,-0.035,100.0,108.0,99.0,13.3,1505.3,323.9,-0.7,1.8,2470.17,13.33,0.014,24.8
2019-11-20T04:34:03,42.805,6.029,0.02,0.014,-0.005,99.0,109.0,98.0,13.4,1505.3,326.4,-0.7,1.9,2470.193,13.33,0.024,55.0
2019-11-20T04:37:03,42.805,6.029,-0.016,0.014,-0.022,98.0,108.0,97.0,13.3,1505.3,326.9,-0.7,1.8,2470.185,13.33,0.021,311.2
2019-11-20T04:40:03,42.805,6.029,0.059,-0.006,-0.009,98.0,109.0,97.0,13.4,1505.3,327.5,-0.7,1.9,2470.194,13.33,0.059,95.8
2019-11-20T04:43:03,42.805,6.029,0.062,0.009,-0.003,98.0,106.0,98.0,13.4,1505.3,325.9,-0.7,1.8,2470.201,13.33,0.062,81.7
2019-11-20T04:46:03,42.805,6.029,0.051,0.0,0.004,100.0,109.0,98.0,13.4,1505.3,326.2,-0.7,1.8,2470.15,13.33,0.051,90.0
2019-11-20T04:49:03,42.805,6.029,0.044,0.003,-0.033,99.0,109.0,97.0,13.4,1505.3,326.6,-0.7,1.8,2470.161,13.33,0.044,86.1
2019-11-20T04:52:03,42.805,6.029,0.012,0.013,-0.021,99.0,108.0,98.0,13.3,1505.3,326.5,-0.7,1.9,2470.18,13.33,0.017,42.7
2019-11-20T04:55:03,42.805,6.029,0.033,0.036,-0.025,99.0,107.0,98.0,13.3,1505.3,325.3,-0.8,1.8,2470.174,13.33,0.048,42.5
2019-11-20T04:58:03,42.805,6.029,0.03,0.014,-0.018,99.0,107.0,97.0,13.4,1505.3,326.5,-0.7,1.8,2470.151,13.33,0.033,65.0
2019-11-20T05:04:03,42.805,6.029,0.035,0.011,-0.045,99.0,107.0,97.0,13.4,1505.3,323.5,-0.8,1.8,2470.159,13.31,0.036,72.6
2019-11-20T05:07:03,42.805,6.029,0.016,0.023,-0.028,99.0,107.0,98.0,13.3,1505.3,323.8,-0.7,1.8,2470.157,13.31,0.028,34.8
2019-11-20T05:10:03,42.805,6.029,0.025,0.026,0.001,99.0,106.0,97.0,13.4,1505.3,326.3,-0.7,1.8,2470.198,13.32,0.036,43.9
2019-11-20T05:13:03,42.805,6.029,0.02,0.008,-0.025,99.0,106.0,97.0,13.3,1505.3,324.3,-0.7,1.8,2470.181,13.32,0.021,68.2
2019-11-20T05:16:03,42.805,6.029,0.034,0.015,-0.015,98.0,107.0,96.0,13.3,1505.3,324.7,-0.7,1.8,2470.185,13.32,0.037,66.2
2019-11-20T05:19:03,42.805,6.029,0.016,0.031,-0.031,98.0,106.0,97.0,13.3,1505.3,326.4,-0.7,1.8,2470.152,13.33,0.034,27.3
2019-11-20T05:22:03,42.805,6.029,0.012,0.029,-0.021,99.0,107.0,97.0,13.4,1505.3,324.5,-0.7,1.8,2470.125,13.33,0.031,22.5
2019-11-20T05:25:03,42.805,6.029,0.044,-0.007,-0.023,98.0,105.0,99.0,13.3,1505.3,328.0,-0.7,1.8,2470.196,13.33,0.044,99.0
2019-11-20T05:28:03,42.805,6.029,0.03,0.012,-0.009,99.0,106.0,98.0,13.3,1505.3,327.2,-0.7,1.8,2470.149,13.33,0.032,68.2
2019-11-20T05:31:03,42.805,6.029,0.041,0.018,-0.015,99.0,105.0,97.0,13.4,1505.3,328.4,-0.7,1.8,2470.128,13.33,0.044,66.3
2019-11-20T05:34:03,42.805,6.029,0.011,0.031,-0.027,99.0,108.0,97.0,13.3,1505.3,328.4,-0.7,1.8,2470.134,13.33,0.032,19.5
2019-11-20T05:37:03,42.805,6.029,0.02,0.019,-0.044,99.0,107.0,97.0,13.4,1505.3,325.2,-0.7,1.8,2470.16,13.33,0.027,46.5
2019-11-20T05:43:03,42.805,6.029,0.022,0.005,0.006,99.0,106.0,98.0,13.4,1505.3,326.9,-0.7,1.8,2470.151,13.31,0.022,77.2
2019-11-20T05:46:03,42.805,6.029,0.03,0.033,-0.017,98.0,105.0,98.0,13.4,1505.3,324.4,-0.8,1.8,2470.155,13.31,0.044,42.3
2019-11-20T05:49:03,42.805,6.029,0.058,0.016,-0.039,99.0,106.0,97.0,13.4,1505.3,326.0,-0.7,1.8,2470.178,13.32,0.06,74.6
2019-11-20T05:52:03,42.805,6.029,0.048,0.012,0.015,99.0,106.0,97.0,13.4,1505.3,323.8,-0.7,1.9,2470.222,13.32,0.049,76.0
2019-11-20T05:55:03,42.805,6.029,0.014,0.028,-0.021,99.0,107.0,96.0,13.4,1505.3,324.2,-0.7,1.8,2470.173,13.32,0.031,26.6
2019-11-20T05:58:03,42.805,6.029,0.038,0.028,-0.036,98.0,106.0,97.0,13.3,1505.3,325.1,-0.7,1.9,2470.164,13.33,0.047,53.6
2019-11-20T06:04:03,42.805,6.029,0.067,0.014,0.015,99.0,107.0,97.0,13.4,1505.3,326.2,-0.8,1.8,2470.175,13.31,0.068,78.2
2019-11-20T06:07:03,42.805,6.029,0.032,0.016,-0.007,99.0,107.0,98.0,13.4,1505.3,324.9,-0.7,1.9,2470.203,13.31,0.035,63.4
2019-11-20T06:10:03,42.805,6.029,0.0,0.015,-0.028,100.0,107.0,98.0,13.3,1505.3,324.7,-0.7,1.8,2470.162,13.32,0.015,0.0
2019-11-20T06:13:03,42.805,6.029,0.021,0.02,0.007,99.0,106.0,97.0,13.4,1505.3,323.6,-0.7,1.9,2470.166,13.32,0.028,46.4
2019-11-20T06:16:03,42.805,6.029,0.033,0.003,-0.065,99.0,106.0,97.0,13.3,1505.3,326.8,-0.7,1.8,2470.156,13.32,0.033,84.8
2019-11-20T06:19:03,42.805,6.029,0.045,0.017,-0.012,98.0,106.0,97.0,13.4,1505.3,324.9,-0.7,1.8,2470.168,13.33,0.048,69.3
2019-11-20T06:22:03,42.805,6.029,0.026,0.022,-0.033,99.0,106.0,98.0,13.4,1505.3,325.3,-0.7,1.8,2470.139,13.33,0.034,49.8
2019-11-20T06:25:03,42.805,6.029,0.028,0.033,-0.001,99.0,107.0,97.0,13.4,1505.3,325.3,-0.7,1.9,2470.162,13.33,0.043,40.3
2019-11-20T06:28:03,42.805,6.029,0.024,0.028,-0.014,100.0,107.0,98.0,13.3,1505.3,327.3,-0.7,1.9,2470.16,13.33,0.036,40.6
2019-11-20T06:31:03,42.805,6.029,0.074,0.003,0.011,99.0,106.0,98.0,13.4,1505.3,326.5,-0.7,1.8,2470.129,13.33,0.074,87.7
2019-11-20T06:34:03,42.805,6.029,0.018,0.019,-0.034,98.0,107.0,98.0,13.4,1505.3,323.7,-0.7,1.8,2470.178,13.33,0.026,43.5
2019-11-20T06:37:03,42.805,6.029,0.043,0.029,0.011,101.0,105.0,97.0,13.4,1505.3,324.4,-0.7,1.8,2470.135,13.33,0.051,56.0
2019-11-20T06:40:03,42.805,6.029,0.035,0.013,-0.026,100.0,105.0,98.0,13.4,1505.3,325.6,-0.7,1.8,2470.14,13.33,0.037,69.6
2019-11-20T06:43:03,42.805,6.029,0.052,0.028,-0.02,100.0,107.0,97.0,13.3,1505.3,323.7,-0.7,1.8,2470.168,13.33,0.059,61.7
2019-11-20T06:46:03,42.805,6.029,0.028,0.024,-0.008,99.0,107.0,98.0,13.4,1505.3,325.0,-0.7,1.9,2470.121,13.33,0.036,49.4
2019-11-20T06:49:03,42.805,6.029,0.044,0.009,0.015,99.0,107.0,98.0,13.4,1505.3,328.4,-0.7,1.9,2470.146,13.33,0.044,78.4
2019-11-20T06:52:03,42.805,6.029,0.006,0.0,-0.038,100.0,106.0,98.0,13.4,1505.3,326.8,-0.7,1.8,2470.164,13.33,0.006,90.0
2019-11-20T06:55:03,42.805,6.029,0.036,0.009,-0.065,99.0,107.0,98.0,13.4,1505.3,323.9,-0.7,1.8,2470.139,13.33,0.037,76.0
2019-11-20T06:58:03,42.805,6.029,0.029,0.023,-0.014,100.0,106.0,98.0,13.4,1505.3,324.9,-0.7,1.8,2470.146,13.33,0.037,51.6
2019-11-20T07:04:03,42.805,6.029,0.043,0.019,0.017,99.0,108.0,97.0,13.3,1505.3,327.6,-0.7,1.8,2470.144,13.31,0.047,66.2
2019-11-20T07:07:03,42.805,6.029,0.053,0.024,-0.005,99.0,107.0,99.0,13.3,1505.3,327.0,-0.7,1.8,2470.154,13.31,0.058,65.6
2019-11-20T07:10:03,42.805,6.029,0.03,0.032,0.008,98.0,107.0,98.0,13.4,1505.3,325.0,-0.7,1.8,2470.149,13.32,0.043,43.1
2019-11-20T07:13:03,42.805,6.029,0.025,0.009,-0.03,99.0,106.0,97.0,13.4,1505.3,325.6,-0.7,1.8,2470.171,13.32,0.026,70.2
2019-11-20T07:16:03,42.805,6.029,0.0,0.01,-0.03,99.0,108.0,98.0,13.3,1505.3,325.5,-0.7,1.8,2470.156,13.32,0.01,0.0
2019-11-20T07:19:03,42.805,6.029,0.011,0.015,-0.05,99.0,108.0,98.0,13.3,1505.3,325.6,-0.7,1.8,2470.139,13.32,0.018,36.3
2019-11-20T07:22:03,42.805,6.029,0.038,0.022,0.01,99.0,108.0,98.0,13.4,1505.3,324.0,-0.7,1.8,2470.16,13.32,0.043,59.9
2019-11-20T07:25:03,42.805,6.029,0.035,0.024,-0.017,99.0,108.0,98.0,13.4,1505.3,325.7,-0.7,1.8,2470.139,13.33,0.042,55.6
2019-11-20T07:28:03,42.805,6.029,0.049,0.014,0.003,100.0,107.0,98.0,13.4,1505.3,327.2,-0.7,1.8,2470.11,13.33,0.05,74.1
2019-11-20T07:31:03,42.805,6.029,0.054,0.008,-0.008,100.0,106.0,98.0,13.4,1505.3,325.5,-0.7,1.9,2470.139,13.33,0.054,81.6
2019-11-20T07:34:03,42.805,6.029,-0.009,0.011,-0.05,99.0,107.0,97.0,13.4,1505.3,324.9,-0.7,1.8,2470.14,13.33,0.014,320.7
2019-11-20T07:37:03,42.805,6.029,0.026,0.012,0.003,99.0,106.0,98.0,13.4,1505.3,325.1,-0.7,1.8,2470.141,13.33,0.028,65.2
2019-11-20T07:40:03,42.805,6.029,0.03,0.016,0.015,98.0,107.0,97.0,13.4,1505.3,325.8,-0.7,1.8,2470.148,13.33,0.034,61.9
2019-11-20T07:43:03,42.805,6.029,0.03,0.005,-0.03,99.0,107.0,97.0,13.4,1505.3,325.1,-0.7,1.9,2470.131,13.33,0.03,80.5
2019-11-20T07:46:03,42.805,6.029,0.044,0.0,-0.023,101.0,107.0,97.0,13.3,1505.3,327.5,-0.7,1.8,2470.149,13.33,0.044,90.0
2019-11-20T07:49:03,42.805,6.029,0.0,0.006,-0.016,100.0,107.0,98.0,13.4,1505.3,324.8,-0.7,1.8,2470.155,13.33,0.006,0.0
2019-11-20T07:52:03,42.805,6.029,0.05,0.008,-0.002,99.0,107.0,99.0,13.3,1505.3,322.8,-0.7,1.8,2470.16,13.33,0.05,80.9
2019-11-20T07:55:03,42.805,6.029,0.049,0.02,-0.011,99.0,107.0,97.0,13.4,1505.3,326.0,-0.7,1.8,2470.156,13.33,0.052,67.8
2019-11-20T07:58:03,42.805,6.029,0.034,0.037,-0.011,99.0,106.0,97.0,13.4,1505.3,324.7,-0.7,1.8,2470.144,13.33,0.05,42.6
2019-11-20T08:04:03,42.805,6.029,0.047,0.002,-0.019,100.0,106.0,96.0,13.4,1505.3,328.3,-0.7,1.8,2470.22,13.31,0.047,87.6
2019-11-20T08:07:03,42.805,6.029,0.027,0.021,-0.01,99.0,107.0,98.0,13.4,1505.3,323.7,-0.8,1.8,2470.144,13.31,0.034,52.1
2019-11-20T08:10:03,42.805,6.029,0.015,0.009,0.01,99.0,107.0,97.0,13.4,1505.3,326.5,-0.7,1.8,2470.19,13.32,0.017,59.0
2019-11-20T08:13:03,42.805,6.029,0.019,0.009,-0.027,100.0,106.0,97.0,13.3,1505.3,327.1,-0.7,1.8,2470.188,13.32,0.021,64.7
2019-11-20T08:16:03,42.805,6.029,0.042,0.014,-0.03,99.0,106.0,98.0,13.4,1505.3,325.9,-0.7,1.8,2470.142,13.32,0.044,71.6
2019-11-20T08:19:03,42.805,6.029,0.029,0.002,-0.066,99.0,108.0,98.0,13.4,1505.3,324.7,-0.7,1.8,2470.188,13.32,0.029,86.1
2019-11-20T08:22:03,42.805,6.029,0.037,0.0,-0.015,98.0,107.0,98.0,13.4,1505.3,323.5,-0.7,1.8,2470.164,13.33,0.037,90.0
2019-11-20T08:25:03,42.805,6.029,0.009,0.0,-0.024,99.0,107.0,97.0,13.4,1505.3,327.0,-0.7,1.8,2470.157,13.33,0.009,90.0
2019-11-20T08:28:03,42.805,6.029,0.007,-0.003,-0.032,99.0,106.0,98.0,13.4,1505.3,323.3,-0.7,1.8,2470.174,13.33,0.007,113.2
2019-11-20T08:31:03,42.805,6.029,0.039,0.013,-0.007,100.0,107.0,97.0,13.3,1505.3,325.0,-0.7,1.8,2470.169,13.33,0.041,71.6
2019-11-20T08:34:03,42.805,6.029,0.015,0.007,-0.016,100.0,106.0,97.0,13.3,1505.3,327.1,-0.7,1.8,2470.186,13.33,0.016,65.0
2019-11-20T08:37:03,42.805,6.029,0.0,0.021,-0.033,100.0,106.0,97.0,13.4,1505.3,326.1,-0.7,1.8,2470.131,13.33,0.021,0.0
2019-11-20T08:40:03,42.805,6.029,0.002,0.0,-0.036,98.0,107.0,99.0,13.3,1505.3,326.1,-0.7,1.8,2470.18,13.33,0.002,90.0
2019-11-20T08:43:03,42.805,6.029,-0.002,0.022,0.001,99.0,107.0,98.0,13.3,1505.3,326.8,-0.7,1.8,2470.174,13.33,0.022,354.8
2019-11-20T08:46:03,42.805,6.029,0.046,0.013,-0.003,99.0,107.0,98.0,13.4,1505.3,326.8,-0.7,1.8,2470.157,13.33,0.047,74.2
2019-11-20T08:49:03,42.805,6.029,0.036,-0.001,-0.054,99.0,107.0,97.0,13.3,1505.3,328.5,-0.7,1.9,2470.13,13.33,0.036,91.6
2019-11-20T08:52:03,42.805,6.029,0.025,0.033,0.015,99.0,106.0,98.0,13.4,1505.3,325.1,-0.7,1.8,2470.191,13.33,0.041,37.2
2019-11-20T08:55:03,42.805,6.029,0.043,-0.036,-0.045,99.0,107.0,97.0,13.3,1505.3,324.7,-0.7,1.9,2470.178,13.33,0.056,129.9
2019-11-20T08:58:03,42.805,6.029,-0.001,0.014,-0.029,100.0,106.0,97.0,13.4,1505.3,326.5,-0.7,1.8,2470.188,13.33,0.014,355.9
2019-11-20T09:04:03,42.805,6.029,0.018,0.017,-0.043,97.0,107.0,98.0,13.3,1505.3,326.3,-0.7,1.9,2470.162,13.31,0.024,46.6
2019-11-20T09:07:03,42.805,6.029,-0.003,0.02,-0.04,97.0,107.0,99.0,13.3,1505.3,327.8,-0.7,1.8,2470.198,13.31,0.02,351.5
2019-11-20T09:10:03,42.805,6.029,0.039,0.019,-0.014,99.0,107.0,97.0,13.3,1505.3,324.1,-0.7,1.8,2470.218,13.32,0.043,64.0
2019-11-20T09:13:03,42.805,6.029,0.014,0.017,-0.009,98.0,107.0,98.0,13.3,1505.3,326.9,-0.7,1.8,2470.207,13.32,0.022,39.5
2019-11-20T09:16:03,42.805,6.029,0.013,0.013,-0.012,100.0,106.0,97.0,13.4,1505.3,325.1,-0.7,1.8,2470.176,13.32,0.018,45.0
2019-11-20T09:19:03,42.805,6.029,0.0,0.025,-0.029,99.0,107.0,98.0,13.4,1505.3,324.9,-0.7,1.8,2470.212,13.32,0.025,0.0
2019-11-20T09:22:03,42.805,6.029,-0.001,0.036,0.003,99.0,107.0,97.0,13.4,1505.3,325.7,-0.7,1.8,2470.204,13.33,0.036,358.4
2019-11-20T09:25:03,42.805,6.029,0.084,0.017,0.016,98.0,105.0,97.0,13.3,1505.3,326.4,-0.7,1.8,2470.184,13.32,0.085,78.6
2019-11-20T09:28:03,42.805,6.029,0.024,-0.003,-0.024,98.0,106.0,99.0,13.4,1505.3,325.9,-0.7,1.8,2470.191,13.33,0.024,97.1
2019-11-20T09:31:03,42.805,6.029,0.045,-0.008,0.005,99.0,106.0,97.0,13.4,1505.3,327.0,-0.8,1.8,2470.17,13.33,0.045,100.1
2019-11-20T09:34:03,42.805,6.029,0.023,0.0,-0.026,99.0,107.0,98.0,13.3,1505.3,327.2,-0.7,1.8,2470.225,13.33,0.023,90.0
2019-11-20T09:37:03,42.805,6.029,0.004,0.012,0.004,98.0,107.0,98.0,13.3,1505.3,326.3,-0.7,1.8,2470.191,13.33,0.012,18.4
2019-11-20T09:40:03,42.805,6.029,0.016,0.006,-0.01,99.0,106.0,97.0,13.4,1505.3,328.4,-0.7,1.8,2470.223,13.33,0.017,69.4
2019-11-20T09:43:03,42.805,6.029,0.0,0.023,-0.015,99.0,107.0,97.0,13.4,1505.3,326.0,-0.7,1.8,2470.188,13.33,0.023,0.0
2019-11-20T09:46:03,42.805,6.029,0.019,0.013,-0.035,99.0,107.0,97.0,13.4,1505.3,327.9,-0.7,1.8,2470.206,13.33,0.023,55.6
2019-11-20T09:49:03,42.805,6.029,0.053,0.023,0.006,100.0,106.0,98.0,13.4,1505.3,326.9,-0.7,1.8,2470.179,13.33,0.057,66.5
2019-11-20T09:52:03,42.805,6.029,0.008,-0.009,-0.021,100.0,107.0,98.0,13.3,1505.3,325.4,-0.7,1.8,2470.171,13.33,0.012,138.4
2019-11-20T09:55:03,42.805,6.029,0.039,0.014,-0.006,99.0,106.0,97.0,13.3,1505.3,325.6,-0.7,1.9,2470.212,13.33,0.041,70.3
2019-11-20T09:58:03,42.805,6.029,0.043,0.014,-0.001,98.0,106.0,98.0,13.4,1505.3,324.0,-0.7,1.8,2470.247,13.33,0.045,72.0
2019-11-20T10:04:03,42.805,6.029,0.039,0.0,0.0,99.0,106.0,97.0,13.3,1505.3,324.7,-0.7,1.8,2470.273,13.31,0.039,90.0
2019-11-20T10:07:03,42.805,6.029,0.025,0.013,0.015,100.0,107.0,97.0,13.4,1505.3,327.1,-0.7,1.9,2470.234,13.31,0.028,62.5
2019-11-20T10:10:03,42.805,6.029,-0.013,0.005,-0.077,99.0,105.0,98.0,13.3,1505.3,323.3,-0.7,1.8,2470.241,13.32,0.013,291.0
2019-11-20T10:13:03,42.805,6.029,0.025,0.013,-0.044,100.0,106.0,97.0,13.4,1505.3,323.8,-0.7,1.8,2470.255,13.32,0.028,62.5
2019-11-20T10:16:03,42.805,6.029,0.043,0.012,-0.02,99.0,105.0,99.0,13.3,1505.3,326.3,-0.8,1.8,2470.234,13.33,0.044,74.4